• In Hungary
  • List of Countries
  • For 7 days
  • Water Temperature
  • Satellite Maps
  • Weather Map
  • News
  • Weather Widgets
  • user-avatar
    Login

    Hourly Weather Atlantic City

    Today, 23 February, Friday

    Time Temperature Precipitation Wind Pressure Humidity
    00:00 +3°C° 0 mm 7 mps 776 mmHg 85%
    01:00 +3°C° 0 mm 7 mps 776 mmHg 85%
    02:00 +3°C° 0.1 mm 7 mps 776 mmHg 86%
    03:00 +3°C° 0.1 mm 7 mps 776 mmHg 87%
    04:00 +3°C° 0.1 mm 7 mps 776 mmHg 88%
    05:00 +3°C° 0.2 mm 7 mps 776 mmHg 88%
    06:00 +3°C° 0.2 mm 7 mps 776 mmHg 89%
    07:00 +3°C° 0.2 mm 7 mps 776 mmHg 89%
    08:00 +3°C° 0.4 mm 7 mps 776 mmHg 89%
    09:00 +3°C° 0.4 mm 7 mps 776 mmHg 90%
    10:00 +3°C° 0.4 mm 7 mps 775 mmHg 90%
    11:00 +4°C° 0.7 mm 6 mps 775 mmHg 91%
    12:00 +4°C° 0.7 mm 6 mps 774 mmHg 92%
    13:00 +5°C° 0.7 mm 5 mps 773 mmHg 93%
    14:00 +6°C° 0.3 mm 4 mps 772 mmHg 94%
    15:00 +6°C° 0.3 mm 4 mps 771 mmHg 95%
    16:00 +7°C° 0.3 mm 3 mps 770 mmHg 96%
    17:00 +8°C° 0.1 mm 3 mps 770 mmHg 97%
    18:00 +8°C° 0.1 mm 2 mps 769 mmHg 97%
    19:00 +8°C° 0.1 mm 2 mps 769 mmHg 98%
    20:00 +9°C° 0.1 mm 3 mps 768 mmHg 98%
    21:00 +8°C° 0.1 mm 4 mps 768 mmHg 98%
    22:00 +9°C° 0.1 mm 5 mps 767 mmHg 98%
    23:00 +10°C° 0 mm 5 mps 767 mmHg 97%

    Tomorrow, 24 February, Saturday

    Time Temperature Precipitation Wind Pressure Humidity
    00:00 +10°C° 0 mm 5 mps 766 mmHg 97%
    01:00 +11°C° 0 mm 6 mps 766 mmHg 97%
    02:00 +11°C° 0.1 mm 6 mps 765 mmHg 97%
    03:00 +12°C° 0.1 mm 5 mps 765 mmHg 97%
    04:00 +13°C° 0.1 mm 5 mps 764 mmHg 97%
    05:00 +13°C° 0 mm 5 mps 764 mmHg 97%
    06:00 +13°C° 0 mm 4 mps 764 mmHg 97%
    07:00 +13°C° 0 mm 4 mps 764 mmHg 97%
    08:00 +13°C° 0 mm 4 mps 765 mmHg 94%
    09:00 +14°C° 0 mm 3 mps 765 mmHg 90%
    10:00 +14°C° 0 mm 3 mps 766 mmHg 86%
    11:00 +16°C° 0 mm 2 mps 765 mmHg 79%
    12:00 +17°C° 0 mm 2 mps 765 mmHg 73%
    13:00 +19°C° 0 mm 1 mps 765 mmHg 66%
    14:00 +18°C° 0 mm 1 mps 765 mmHg 69%
    15:00 +16°C° 0 mm 2 mps 765 mmHg 72%
    16:00 +15°C° 0 mm 2 mps 765 mmHg 75%
    17:00 +13°C° 0 mm 3 mps 765 mmHg 77%
    18:00 +12°C° 0 mm 3 mps 766 mmHg 79%
    19:00 +11°C° 0 mm 4 mps 766 mmHg 81%
    20:00 +11°C° 0 mm 4 mps 766 mmHg 79%
    21:00 +11°C° 0 mm 4 mps 766 mmHg 76%
    22:00 +10°C° 0 mm 5 mps 766 mmHg 73%
    23:00 +9°C° 0.2 mm 5 mps 766 mmHg 76%

    Day after tomorrow, 25 February, Sunday

    Time Temperature Precipitation Wind Pressure Humidity
    00:00 +9°C° 0.2 mm 6 mps 765 mmHg 78%
    01:00 +8°C° 0.2 mm 6 mps 765 mmHg 81%
    02:00 +8°C° 2.1 mm 7 mps 764 mmHg 84%
    03:00 +6°C° 2.1 mm 7 mps 763 mmHg 87%
    04:00 +6°C° 2.1 mm 7 mps 763 mmHg 90%
    05:00 +7°C° 1.6 mm 6 mps 762 mmHg 92%
    06:00 +7°C° 1.6 mm 5 mps 762 mmHg 93%
    07:00 +7°C° 1.6 mm 5 mps 762 mmHg 95%
    08:00 +8°C° 2 mm 5 mps 761 mmHg 96%
    09:00 +9°C° 2 mm 5 mps 761 mmHg 97%
    10:00 +10°C° 2 mm 5 mps 760 mmHg 97%
    11:00 +11°C° 1.9 mm 6 mps 760 mmHg 96%
    12:00 +13°C° 1.9 mm 6 mps 759 mmHg 95%
    13:00 +15°C° 1.9 mm 7 mps 758 mmHg 94%
    14:00 +16°C° 0.1 mm 7 mps 758 mmHg 91%
    15:00 +17°C° 0.1 mm 7 mps 758 mmHg 88%
    16:00 +18°C° 0.1 mm 7 mps 758 mmHg 85%
    17:00 +17°C° 0 mm 7 mps 758 mmHg 87%
    18:00 +17°C° 0 mm 6 mps 759 mmHg 90%
    19:00 +16°C° 0 mm 6 mps 759 mmHg 92%
    20:00 +15°C° 0 mm 5 mps 759 mmHg 89%
    21:00 +14°C° 0 mm 4 mps 760 mmHg 86%
    22:00 +13°C° 0 mm 4 mps 760 mmHg 82%
    23:00 +12°C° 0 mm 3 mps 760 mmHg 81%

    26 February, Monday

    Time Temperature Precipitation Wind Pressure Humidity
    00:00 +12°C° 0 mm 3 mps 761 mmHg 79%
    01:00 +11°C° 0 mm 3 mps 761 mmHg 77%
    02:00 +11°C° 0 mm 3 mps 761 mmHg 78%
    03:00 +10°C° 0 mm 3 mps 761 mmHg 79%
    04:00 +10°C° 0 mm 4 mps 762 mmHg 80%
    05:00 +8°C° 0 mm 4 mps 762 mmHg 80%
    06:00 +8°C° 0 mm 4 mps 763 mmHg 79%
    07:00 +7°C° 0 mm 4 mps 763 mmHg 79%
    08:00 +8°C° 0 mm 4 mps 763 mmHg 70%
    09:00 +10°C° 0 mm 4 mps 764 mmHg 60%
    10:00 +11°C° 0 mm 4 mps 764 mmHg 51%
    11:00 +12°C° 0 mm 4 mps 764 mmHg 46%
    12:00 +13°C° 0 mm 4 mps 764 mmHg 41%
    13:00 +14°C° 0 mm 4 mps 764 mmHg 36%
    14:00 +13°C° 0 mm 5 mps 764 mmHg 36%
    15:00 +13°C° 0 mm 5 mps 764 mmHg 36%
    16:00 +13°C° 0 mm 5 mps 765 mmHg 36%
    17:00 +12°C° 0 mm 5 mps 765 mmHg 42%
    18:00 +10°C° 0 mm 4 mps 766 mmHg 47%
    19:00 +7°C° 0 mm 4 mps 767 mmHg 53%
    20:00 +7°C° 0 mm 4 mps 767 mmHg 54%
    21:00 +7°C° 0 mm 4 mps 767 mmHg 55%
    22:00 +6°C° 0 mm 4 mps 768 mmHg 56%
    23:00 +6°C° 0 mm 4 mps 768 mmHg 56%

    27 February, Tuesday

    Time Temperature Precipitation Wind Pressure Humidity
    00:00 +5°C° 0 mm 4 mps 769 mmHg 56%
    01:00 +4°C° 0 mm 4 mps 769 mmHg 55%
    02:00 +4°C° 0 mm 4 mps 769 mmHg 55%
    03:00 +3°C° 0 mm 4 mps 769 mmHg 56%
    04:00 +1°C° 0 mm 4 mps 770 mmHg 56%
    05:00 +2°C° 0 mm 3 mps 770 mmHg 57%
    06:00 +1°C° 0 mm 3 mps 771 mmHg 59%
    07:00 +1°C° 0 mm 3 mps 771 mmHg 60%
    08:00 +4°C° 0 mm 2 mps 771 mmHg 53%
    09:00 +7°C° 0 mm 2 mps 772 mmHg 47%
    10:00 +10°C° 0 mm 1 mps 772 mmHg 40%
    11:00 +10°C° 0 mm 2 mps 771 mmHg 38%
    12:00 +12°C° 0 mm 2 mps 771 mmHg 36%
    13:00 +12°C° 0 mm 3 mps 770 mmHg 34%
    14:00 +12°C° 0 mm 3 mps 770 mmHg 36%
    15:00 +12°C° 0 mm 4 mps 770 mmHg 38%
    16:00 +12°C° 0 mm 4 mps 769 mmHg 40%
    17:00 +10°C° 0 mm 4 mps 769 mmHg 47%
    18:00 +7°C° 0 mm 4 mps 769 mmHg 53%
    19:00 +6°C° 0 mm 4 mps 769 mmHg 60%
    20:00 +5°C° 0 mm 4 mps 769 mmHg 62%
    21:00 +5°C° 0 mm 4 mps 769 mmHg 64%
    22:00 +4°C° 0 mm 4 mps 768 mmHg 66%
    23:00 +4°C° 0 mm 4 mps 768 mmHg 66%

    28 February, Wednesday

    Time Temperature Precipitation Wind Pressure Humidity
    00:00 +4°C° 0 mm 4 mps 768 mmHg 65%
    01:00 +4°C° 0 mm 4 mps 768 mmHg 64%
    02:00 +4°C° 0 mm 4 mps 767 mmHg 64%
    03:00 +3°C° 0 mm 4 mps 767 mmHg 65%
    04:00 +3°C° 0 mm 4 mps 767 mmHg 66%
    05:00 +3°C° 0 mm 3 mps 767 mmHg 68%
    06:00 +3°C° 0 mm 3 mps 767 mmHg 71%
    07:00 +3°C° 0 mm 3 mps 766 mmHg 74%
    08:00 +5°C° 0 mm 3 mps 766 mmHg 70%
    09:00 +8°C° 0 mm 3 mps 766 mmHg 65%
    10:00 +11°C° 0 mm 3 mps 766 mmHg 61%
    11:00 +12°C° 0 mm 3 mps 766 mmHg 59%
    12:00 +13°C° 0 mm 4 mps 765 mmHg 57%
    13:00 +14°C° 0 mm 4 mps 765 mmHg 56%
    14:00 +14°C° 0 mm 4 mps 764 mmHg 59%
    15:00 +14°C° 0 mm 5 mps 764 mmHg 63%
    16:00 +13°C° 0 mm 5 mps 763 mmHg 66%
    17:00 +12°C° 0 mm 5 mps 763 mmHg 70%
    18:00 +12°C° 0 mm 5 mps 763 mmHg 73%
    19:00 +10°C° 0 mm 5 mps 763 mmHg 76%
    20:00 +10°C° 0 mm 5 mps 763 mmHg 75%
    21:00 +10°C° 0 mm 6 mps 763 mmHg 74%
    22:00 +10°C° 0 mm 6 mps 762 mmHg 73%
    23:00 +9°C° 0.5 mm 6 mps 762 mmHg 78%
    Show more